Flight Track Log - Related Links

Times and Time Zones

All times are in EDT time to prevent confusion due to time zone crossing. See the UPS801 flight status page for this flight to view local times or setup timezone preferences in your user account.

Time Position Orientation Groundspeed Altitude Reporting Facility
EDT Latitude Longitude Course Direction KTS MPH feet Rate Location/Type
Fri 11:54:52 PM 39.8774 -104.6443 90° East 170 196 5,400  Level FlightAware ADS-B
Fri 11:55:09 PM 39.8776 -104.6202 90° East 176 203 6,200 2,500 Climbing FlightAware ADS-B (KEIK)
Fri 11:55:40 PM 39.8779 -104.5857 89° East 197 227 7,400 2,000 Climbing FlightAware ADS-B (KEIK)
Fri 11:56:03 PM 39.8821 -104.5566 75° East 239 275 8,000 1,953 Climbing FlightAware ADS-B (KEIK)
Fri 11:56:23 PM 39.8884 -104.5306 72° East 252 290 8,800 1,889 Climbing FlightAware ADS-B (KEIK)
Fri 11:56:57 PM 39.9015 -104.4757 74° East 292 336 9,700 2,156 Climbing FlightAware ADS-B
Fri 11:57:27 PM 39.9132 -104.4218 74° East 313 360 11,100 2,240 Climbing FlightAware ADS-B (KEIK)
Fri 11:58:12 PM 39.9326 -104.3318 75° East 373 429 12,500 2,526 Climbing FlightAware ADS-B (KEIK)
Fri 11:58:43 PM 39.9431 -104.2687 80° East 385 443 14,300 3,403 Climbing FlightAware ADS-B (KEIK)
Fri 11:59:19 PM 39.9551 -104.1895 77° East 407 468 16,300 3,380 Climbing FlightAware ADS-B
Fri 11:59:54 PM 39.9716 -104.0945 78° East 417 480 18,300 3,273 Climbing FlightAware ADS-B (KEIK)
Sat 12:00:25 AM 39.9840 -104.0206 78° East 425 489 19,900 3,000 Climbing FlightAware ADS-B (KEIK)
Sat 12:00:56 AM 39.9951 -103.9519 78° East 440 506 21,400 2,743 Climbing FlightAware ADS-B (KEIK)
Sat 12:01:35 AM 40.0109 -103.8558 78° East 453 521 23,100 2,571 Climbing FlightAware ADS-B (KEIK)
Sat 12:02:13 AM 40.0309 -103.7341 78° East 464 534 24,700 2,280 Climbing FlightAware ADS-B (KEIK)
Sat 12:03:15 AM 40.0591 -103.5619 78° East 483 556 26,900 2,121 Climbing FlightAware ADS-B (KEIK)
Sat 12:03:52 AM 40.0767 -103.4528 78° East 495 570 28,200 2,348 Climbing FlightAware ADS-B
Sat 12:04:24 AM 40.0913 -103.3621 78° East 493 567 29,600 2,522 Climbing FlightAware ADS-B
Sat 12:05:01 AM 40.1085 -103.2544 78° East 492 566 31,100 2,231 Climbing FlightAware ADS-B (KEIK)
Sat 12:05:42 AM 40.1154 -103.2114 78° East 495 570 32,500 1,875 Climbing FlightAware ADS-B
Sat 12:06:21 AM 40.1455 -103.0205 78° East 501 577 33,600 1,833 Climbing FlightAware ADS-B (KEIK)
Sat 12:06:54 AM 40.1611 -102.9209 79° East 501 577 34,700 1,292 Climbing FlightAware ADS-B
Sat 12:07:26 AM 40.1748 -102.8328 78° East 503 579 35,000 212 Climbing FlightAware ADS-B (KEIK)
Sat 12:08:19 AM 40.1968 -102.6903 79° East 499 574 35,000  Level FlightAware ADS-B (KEIK)
Sat 12:08:49 AM 40.2137 -102.5798 79° East 498 573 35,000  Level FlightAware ADS-B (KEIK)
Sat 12:09:30 AM 40.2272 -102.4906 79° East 505 581 35,000  Level FlightAware ADS-B (KEIK)
Sat 12:10:01 AM 40.2457 -102.3686 79° East 510 587 35,000  Level FlightAware ADS-B (KEIK)
Sat 12:10:41 AM 40.2590 -102.2800 79° East 513 590 35,000  Level FlightAware ADS-B (KEIK)
Sat 12:11:15 AM 40.2751 -102.1730 79° East 513 590 35,000  Level FlightAware ADS-B (KEIK)
Sat 12:11:54 AM 40.2971 -102.0248 79° East 512 589 35,000  Level FlightAware ADS-B (KEIK)
Sat 12:12:27 AM 40.3104 -101.9344 79° East 511 588 35,000  Level FlightAware ADS-B (KEIK)
Sat 12:13:11 AM 40.3288 -101.8086 79° East 510 587 35,000  Level FlightAware ADS-B (KEIK)
Sat 12:13:41 AM 40.3448 -101.6982 79° East 511 588 35,000  Level FlightAware ADS-B (KEIK)
Sat 12:14:13 AM 40.3552 -101.6264 79° East 511 588 35,000  Level FlightAware ADS-B
Sat 12:14:43 AM 40.3706 -101.5192 79° East 512 589 35,000  Level FlightAware ADS-B (KEIK)
Sat 12:15:16 AM 40.3855 -101.4145 79° East 513 590 35,000  Level FlightAware ADS-B (KEIK)
Sat 12:15:46 AM 40.3991 -101.3180 80° East 513 590 35,000  Level FlightAware ADS-B (KEIK)
Sat 12:16:23 AM 40.4099 -101.2414 80° East 513 590 35,000  Level FlightAware ADS-B (KEIK)
Sat 12:17:02 AM 40.4301 -101.0967 80° East 513 590 35,000  Level FlightAware ADS-B (KEIK)
Sat 12:17:42 AM 40.4478 -100.9667 82° East 513 590 35,000  Level FlightAware ADS-B (KEIK)
Sat 12:20:48 AM 40.4817 -100.3874 86° East 516 594 35,000  Level FlightAware ADS-B
Sat 12:24:30 AM 40.4585 -99.7001 101° East 513 590 35,000  Level FlightAware ADS-B
Sat 12:25:10 AM 40.4428 -99.5992 101° East 514 592 35,000  Level Denver Center
Sat 12:26:11 AM 40.4175 -99.4164 100° East 513 590 35,000  Level Denver Center
Sat 12:27:12 AM 40.3906 -99.2317 101° East 514 592 35,000  Level Denver Center
Sat 12:28:13 AM 40.3639 -99.0497 101° East 514 592 35,000  Level Denver Center
Sat 12:29:15 AM 40.3369 -98.8658 101° East 514 592 35,000  Level Denver Center
Sat 12:30:16 AM 40.3089 -98.6817 101° East 516 594 35,000  Level Denver Center
Sat 12:31:17 AM 40.2758 -98.4611 101° East 516 594 35,000  Level Denver Center
Sat 12:32:39 AM 40.2417 -98.2394 101° East 518 596 35,000  Level Minneapolis Center
Sat 12:33:39 AM 40.2131 -98.0558 101° East 518 596 35,000  Level Minneapolis Center
Sat 12:34:40 AM 40.1783 -97.8350 102° East 518 596 35,000  Level Minneapolis Center
Sat 12:35:40 AM 40.1489 -97.6508 102° East 518 596 35,000  Level Minneapolis Center
Sat 12:36:41 AM 40.1192 -97.4675 102° East 518 596 35,000  Level Minneapolis Center
Sat 12:37:41 AM 40.0944 -97.3156 102° East 518 596 35,000  Level Minneapolis Center
Sat 12:38:42 AM 40.0647 -97.1322 102° East 518 596 35,000  Level Minneapolis Center
Sat 12:44:11 AM 40.0660 -97.1399 102° East 520 598 35,000  Level FlightAware ADS-B (EGNC / CAX)
Sat 12:44:44 AM 39.8703 -95.9947 102° East 521 600 35,000  Level Minneapolis Center
Sat 12:45:44 AM 39.8378 -95.8114 103° East 522 601 35,000  Level Minneapolis Center
Sat 12:46:48 AM 39.8011 -95.6064 103° East 524 603 35,000  Level Kansas City Center
Sat 12:47:49 AM 39.7692 -95.4289 103° East 525 604 35,000  Level Kansas City Center
Sat 12:48:49 AM 39.7367 -95.2506 103° East 525 604 35,000  Level Kansas City Center
Sat 12:49:50 AM 39.7039 -95.0719 103° East 526 605 35,000  Level Kansas City Center
Sat 12:50:52 AM 39.6650 -94.8633 104° East 528 608 35,000  Level Kansas City Center
Sat 12:51:53 AM 39.6311 -94.6844 104° East 529 609 35,000  Level Kansas City Center
Sat 12:58:54 AM 39.4039 -93.3614 105° East 534 615 35,000  Level Kansas City Center
Sat 12:59:54 AM 39.3783 -93.1744 100° East 534 615 35,000  Level Kansas City Center
Sat 01:00:55 AM 39.3519 -92.9878 100° East 534 615 35,000  Level Kansas City Center
Sat 01:01:00 AM 39.3597 -93.3445 104° East  Level FlightAware Approximate
Sat 01:01:57 AM 39.3253 -92.8006 100° East 535 616 35,000  Level Kansas City Center
Sat 01:02:00 AM 39.3268 -93.1816 105° East  Level FlightAware Approximate
Sat 01:02:56 AM 39.2978 -92.6139 101° East 535 616 35,000  Level Kansas City Center
Sat 01:03:00 AM 39.2934 -93.0190 105° East  Level FlightAware Approximate
Sat 01:03:56 AM 39.2706 -92.4272 101° East 536 617 35,000  Level Kansas City Center
Sat 01:04:00 AM 39.2588 -92.8568 105° East  Level FlightAware Approximate
Sat 01:04:57 AM 39.2403 -92.2264 101° East 536 617 35,000  Level Kansas City Center
Sat 01:05:57 AM 39.2117 -92.0367 101° East 537 618 35,000  Level Kansas City Center
Sat 01:06:58 AM 39.1828 -91.8467 101° East 536 617 35,000  Level Kansas City Center
Sat 01:07:58 AM 39.1561 -91.6742 101° East 536 617 35,000  Level Kansas City Center
Sat 01:08:58 AM 39.1267 -91.4856 101° East 537 618 35,000  Level Kansas City Center
Sat 01:09:58 AM 39.0972 -91.2978 101° East 537 618 35,000  Level Kansas City Center
Sat 01:11:01 AM 39.0669 -91.1097 102° East 537 618 35,000  Level Kansas City Center
Sat 01:12:02 AM 39.0367 -90.9214 102° East 537 618 35,000  Level Kansas City Center
Sat 01:12:59 AM 39.0058 -90.7331 102° East 537 618 35,000  Level Kansas City Center
Sat 01:14:00 AM 38.9747 -90.5442 102° East 537 618 35,000  Level Kansas City Center
Sat 01:15:00 AM 38.9392 -90.3311 102° East 537 618 35,000  Level Kansas City Center
Sat 01:16:00 AM 38.9122 -90.1711 102° East 537 618 35,000  Level Kansas City Center
Sat 01:17:01 AM 38.8786 -89.9742 102° East 537 618 35,000  Level Kansas City Center
Sat 01:18:01 AM 38.8464 -89.7861 102° East 538 619 35,000  Level Kansas City Center
Sat 01:19:01 AM 38.8158 -89.6108 103° East 538 619 35,000  Level Kansas City Center
Sat 01:20:02 AM 38.7831 -89.4233 103° East 539 620 35,000  Level Kansas City Center
Sat 01:21:02 AM 38.7475 -89.2228 103° East 540 621 35,000 -50 Level Kansas City Center
Sat 01:22:03 AM 38.7136 -89.0325 103° East 553 636 34,900 -595 Descending Kansas City Center
Sat 01:23:03 AM 38.6781 -88.8381 103° East 559 643 33,800 -950 Descending Kansas City Center
Sat 01:24:03 AM 38.6381 -88.6178 103° East 560 644 33,000 -400 Descending Kansas City Center
Sat 01:25:03 AM 38.6022 -88.4242 103° East 558 642 33,000 -248 Level Kansas City Center
Sat 01:26:04 AM 38.5661 -88.2311 103° East 558 642 32,500 -992 Descending Kansas City Center
Sat 01:27:04 AM 38.5300 -88.0372 103° East 558 642 31,000 -2,300 Descending Kansas City Center
Sat 01:28:04 AM 38.4931 -87.8450 104° East 555 639 27,900 -2,900 Descending Kansas City Center
Sat 01:29:04 AM 38.4572 -87.6586 104° East 537 618 25,200 -2,579 Descending Kansas City Center
Sat 01:30:05 AM 38.4225 -87.4792 104° East 514 592 22,700 -2,208 Descending Kansas City Center
Sat 01:31:28 AM 38.3833 -87.2775 104° East 489 563 19,900 -2,140 Descending Indianapolis Center
Sat 01:32:28 AM 38.3489 -87.1047 104° East 471 542 17,600 -2,300 Descending Indianapolis Center
Sat 01:33:28 AM 38.3169 -86.9442 104° East 452 520 15,300 -1,395 Descending Indianapolis Center
Sat 01:38:12 AM 38.3535 -87.1277 102° East 329 379 9,600 -1,176 Descending FlightAware ADS-B
Sat 01:41:48 AM 38.0536 -85.9581 121° Southeast 292 336 5,500 -1,046 Descending FlightAware ADS-B
Sat 01:42:53 AM 38.0066 -85.8605 121° Southeast 281 323 4,700 -624 Descending FlightAware ADS-B
Sat 01:43:53 AM 37.9679 -85.7808 122° Southeast 251 289 4,200 -397 Descending FlightAware ADS-B
Sat 01:44:54 AM 37.9492 -85.7070 79° East 206 237 3,900 -550 Descending FlightAware ADS-B
Sat 01:45:53 AM 37.9876 -85.6833 345° North 161 185 3,100 -500 Descending FlightAware ADS-B
Sat 01:46:54 AM 38.0317 -85.6977 345° North 158 182 2,900 -450 Descending FlightAware ADS-B
Sat 01:47:53 AM 38.0724 -85.7111 345° North 138 159 2,200 -750 Descending FlightAware ADS-B
Sat 01:48:54 AM 38.1036 -85.7214 346° North 129 148 1,400 -787 Descending FlightAware ADS-B

Login

Don't have an account? Register now (free) for customized features, flight alerts, and more!